Weather History for KHRT - November, 2012

Change the Weather History Date:

Monday, November 12, 2012

  Actual Average Record
Temperature  
Mean Temperature 64 °F -  
Max Temperature 75 °F 69 °F 78 °F (1999)
Min Temperature 53 °F 50 °F 32 °F (2011)
Degree Days  
Heating Degree Days 1    
Growing Degree Days 14 (Base 50)    
Moisture  
Dew Point 63 °F    
Average Humidity 94    
Maximum Humidity 100    
Minimum Humidity 83    
Precipitation  
Precipitation 0.42 in - - ()
Sea Level Pressure  
Sea Level Pressure 30.21 in    
Wind  
Wind Speed 9 mph (NNE)    
Max Wind Speed 18 mph    
Max Gust Speed 25 mph    
Visibility 9 miles    
Events Rain    
Averages and records for this station are not official NWS values.
T = Trace of Precipitation, MM = Missing Value Source: NWS Daily Summary

Daily Weather History Graph

Daily Weather History Graph

Search for Another Location

Airport or City:

Trip Planner

Search our weather history database for the weather conditions in past years. The results will help you decide how hot, cold, wet, or windy it might be!

Date:

Astronomy

Nov. 12, 2012 Rise Set
Actual Time 6:10 AM CST 4:51 PM CST
Civil Twilight 5:45 AM CST 5:16 PM CST
Nautical Twilight 5:16 AM CST 5:45 PM CST
Astronomical Twilight 4:47 AM CST 6:13 PM CST
Moon 4:39 AM CST (11/12) 3:53 PM CST (11/12)
Length of Visible Light 11h 31m
Length of Day
10h 40m
Waning Crescent, 2% of the Moon is Illuminated
Nov 12
Waning Crescent
Nov 13
New
Nov 20
First Quarter
Nov 28
Full
Dec 6
Last Quarter

Hourly Weather History & Observations

Time (CST) Temp. Dew Point Humidity Pressure Visibility Wind Dir Wind Speed Gust Speed Precip Events Conditions
12:55 AM 62.8 °F 60.8 °F 93% 30.19 in 10.0 mi East 5.8 mph - N/A   Partly Cloudy
1:55 AM 62.4 °F 61.0 °F 95% 30.19 in 10.0 mi East 4.6 mph - N/A   Clear
2:55 AM 63.5 °F 61.9 °F 94% 30.18 in 10.0 mi East 4.6 mph - N/A   Partly Cloudy
3:55 AM 63.7 °F 62.1 °F 94% 30.17 in 10.0 mi East 4.6 mph - N/A   Clear
4:55 AM 63.7 °F 63.0 °F 97% 30.18 in 10.0 mi ENE 5.8 mph - N/A   Clear
5:05 AM 64.4 °F 62.6 °F 94% 30.18 in 10.0 mi ENE 6.9 mph - N/A   Partly Cloudy
5:14 AM 64.4 °F 62.6 °F 94% 30.18 in 10.0 mi East 6.9 mph - N/A   Mostly Cloudy
5:37 AM 64.4 °F 64.4 °F 100% 30.18 in 10.0 mi East 5.8 mph - N/A   Scattered Clouds
5:55 AM 64.6 °F 64.0 °F 98% 30.18 in 10.0 mi ESE 11.5 mph - N/A   Clear
6:55 AM 69.1 °F 68.5 °F 98% 30.19 in 10.0 mi ESE 10.4 mph - N/A   Clear
7:55 AM 70.2 °F 68.9 °F 96% 30.19 in 10.0 mi SE 10.4 mph - N/A   Clear
8:03 AM 69.8 °F 69.8 °F 100% 30.20 in 10.0 mi SE 9.2 mph - N/A   Partly Cloudy
8:15 AM 69.8 °F 69.8 °F 100% 30.20 in 10.0 mi SE 8.1 mph - N/A   Scattered Clouds
8:24 AM 69.8 °F 69.8 °F 100% 30.20 in 10.0 mi SE 9.2 mph - N/A   Mostly Cloudy
8:53 AM 71.6 °F 69.8 °F 94% 30.21 in 10.0 mi SE 11.5 mph - N/A   Mostly Cloudy
8:55 AM 70.9 °F 69.4 °F 95% 30.21 in 10.0 mi SE 12.7 mph - N/A   Mostly Cloudy
9:01 AM 71.6 °F 69.8 °F 94% 30.22 in 10.0 mi SE 11.5 mph - N/A   Mostly Cloudy
9:04 AM 71.6 °F 69.8 °F 94% 30.22 in 10.0 mi ESE 8.1 mph - N/A   Overcast
9:05 AM 71.6 °F 69.8 °F 94% 30.22 in 10.0 mi ESE 10.4 mph - N/A   Overcast
9:08 AM 71.6 °F 69.8 °F 94% 30.22 in 10.0 mi ESE 9.2 mph - N/A   Overcast
9:14 AM 71.6 °F 69.8 °F 94% 30.22 in 10.0 mi SE 10.4 mph - N/A   Overcast
9:55 AM 72.3 °F 69.8 °F 92% 30.22 in 10.0 mi SE 10.4 mph - N/A   Overcast
10:05 AM 73.4 °F 69.8 °F 88% 30.22 in 10.0 mi SE 9.2 mph - N/A   Scattered Clouds
10:32 AM 73.4 °F 69.8 °F 88% 30.22 in 10.0 mi SE 10.4 mph - N/A   Mostly Cloudy
10:55 AM 73.8 °F 69.8 °F 87% 30.22 in 10.0 mi SE 9.2 mph - N/A   Mostly Cloudy
11:10 AM 73.4 °F 69.8 °F 88% 30.22 in 10.0 mi SSE 9.2 mph - N/A   Mostly Cloudy
11:14 AM 73.4 °F 69.8 °F 88% 30.22 in 10.0 mi SE 8.1 mph - N/A   Scattered Clouds
11:24 AM 73.4 °F 69.8 °F 88% 30.22 in 10.0 mi SE 8.1 mph - N/A   Mostly Cloudy
11:47 AM 73.4 °F 69.8 °F 88% 30.21 in 10.0 mi SSE 9.2 mph - N/A   Mostly Cloudy
11:48 AM 73.4 °F 69.8 °F 88% 30.21 in 10.0 mi SSE 8.1 mph - N/A   Mostly Cloudy
11:55 AM 73.6 °F 69.3 °F 86% 30.21 in 10.0 mi SSE 8.1 mph - N/A   Mostly Cloudy
12:02 PM 73.4 °F 69.8 °F 88% 30.20 in 10.0 mi SSE 8.1 mph - N/A Rain Light Rain
12:07 PM 73.4 °F 69.8 °F 88% 30.20 in 10.0 mi SSE 8.1 mph - N/A   Light Drizzle
12:13 PM 73.4 °F 69.8 °F 88% 30.20 in 10.0 mi SSE 8.1 mph - N/A   Mostly Cloudy
12:43 PM 75.2 °F 69.8 °F 83% 30.18 in 10.0 mi SSE 10.4 mph - N/A Rain Light Rain
12:52 PM 75.2 °F 69.8 °F 83% 30.17 in 10.0 mi SSE 11.5 mph - N/A   Clear
12:55 PM 74.5 °F 69.1 °F 83% 30.17 in 10.0 mi SSE 10.4 mph - 0.00 in   Clear
1:55 PM 73.0 °F 68.9 °F 87% 30.16 in 10.0 mi SSE 10.4 mph - N/A   Mostly Cloudy
2:07 PM 73.4 °F 68.0 °F 83% 30.16 in 10.0 mi SSE 9.2 mph - N/A   Mostly Cloudy
2:09 PM 73.4 °F 69.8 °F 88% 30.16 in 10.0 mi SSE 9.2 mph - N/A Rain Light Rain
2:38 PM 68.0 °F 66.2 °F 94% 30.16 in 8.0 mi NNW 9.2 mph 24.2 mph N/A Rain Light Rain
2:44 PM 68.0 °F 66.2 °F 94% 30.17 in 2.5 mi NW 8.1 mph - N/A Rain Heavy Rain
2:49 PM 66.2 °F 64.4 °F 94% 30.18 in 2.0 mi NNW 9.2 mph - N/A Rain Heavy Rain
2:53 PM 66.2 °F 64.4 °F 94% 30.19 in 1.8 mi NW 12.7 mph - N/A Rain Heavy Rain
2:54 PM 66.2 °F 64.4 °F 94% 30.19 in 1.5 mi NW 11.5 mph - N/A Rain Heavy Rain
2:55 PM 65.5 °F 64.4 °F 96% 30.19 in 1.5 mi NW 11.5 mph - 0.37 in Rain Heavy Rain
2:56 PM 66.2 °F 64.4 °F 94% 30.19 in 1.2 mi NW 11.5 mph - N/A Rain Heavy Rain
2:58 PM 64.4 °F 64.4 °F 100% 30.18 in 1.2 mi NW 12.7 mph - N/A Rain Heavy Rain
2:59 PM 64.4 °F 64.4 °F 100% 30.18 in 1.5 mi NW 15.0 mph - N/A Rain Heavy Rain
3:02 PM 64.4 °F 64.4 °F 100% 30.18 in 1.8 mi NNW 11.5 mph - N/A Rain Rain
3:03 PM 64.4 °F 64.4 °F 100% 30.18 in 2.0 mi NNW 9.2 mph - N/A Rain Light Rain
3:04 PM 64.4 °F 64.4 °F 100% 30.18 in 3.0 mi NNW 9.2 mph - N/A Rain Light Rain
3:17 PM 64.4 °F 64.4 °F 100% 30.19 in 10.0 mi NNW 9.2 mph - N/A Rain Light Rain
3:23 PM 64.4 °F 64.4 °F 100% 30.18 in 10.0 mi NNW 9.2 mph - N/A Rain Light Rain
3:34 PM 64.4 °F 64.4 °F 100% 30.19 in 10.0 mi NNW 10.4 mph - N/A Rain Light Rain
3:39 PM 64.4 °F 64.4 °F 100% 30.18 in 10.0 mi NNW 10.4 mph - N/A Rain Light Rain
3:55 PM 63.7 °F 63.1 °F 98% 30.19 in 10.0 mi NNW 11.5 mph - 0.03 in Rain Light Rain
4:09 PM 62.6 °F 62.6 °F 100% 30.19 in 10.0 mi NNW 13.8 mph 19.6 mph N/A Rain Light Rain
4:14 PM 62.6 °F 62.6 °F 100% 30.20 in 10.0 mi NNW 17.3 mph 23.0 mph N/A Rain Light Rain
4:22 PM 62.6 °F 60.8 °F 94% 30.20 in 10.0 mi NNW 16.1 mph 23.0 mph N/A   Light Drizzle
4:30 PM 60.8 °F 60.8 °F 100% 30.20 in 10.0 mi North 13.8 mph - N/A Rain Light Rain
4:33 PM 60.8 °F 60.8 °F 100% 30.21 in 10.0 mi North 12.7 mph - N/A Rain Light Rain
4:36 PM 60.8 °F 60.8 °F 100% 30.20 in 10.0 mi North 11.5 mph - N/A   Overcast
4:37 PM 60.8 °F 60.8 °F 100% 30.20 in 10.0 mi North 10.4 mph - N/A   Overcast
4:49 PM 60.8 °F 60.8 °F 100% 30.21 in 10.0 mi North 10.4 mph - N/A Rain Light Rain
4:55 PM 61.0 °F 60.4 °F 98% 30.21 in 10.0 mi NNW 10.4 mph - 0.00 in Rain Light Rain
5:12 PM 60.8 °F 60.8 °F 100% 30.21 in 10.0 mi North 11.5 mph 18.4 mph N/A Rain Light Rain
5:25 PM 60.8 °F 59.0 °F 94% 30.21 in 10.0 mi North 11.5 mph - N/A Rain Light Rain
5:31 PM 60.8 °F 60.8 °F 100% 30.22 in 10.0 mi North 10.4 mph - N/A Rain Light Rain
5:34 PM 60.8 °F 60.8 °F 100% 30.22 in 10.0 mi North 9.2 mph - N/A   Overcast
5:47 PM 60.8 °F 59.0 °F 94% 30.22 in 10.0 mi North 11.5 mph - N/A   Overcast
5:55 PM 59.9 °F 59.5 °F 99% 30.22 in 10.0 mi North 11.5 mph - 0.00 in   Overcast
6:04 PM 59.0 °F 59.0 °F 100% 30.22 in 10.0 mi North 12.7 mph - N/A   Overcast
6:55 PM 58.5 °F 57.9 °F 98% 30.24 in 10.0 mi North 13.8 mph - N/A   Overcast
7:26 PM 57.2 °F 57.2 °F 100% 30.25 in 10.0 mi North 15.0 mph 24.2 mph N/A   Overcast
7:43 PM 57.2 °F 55.4 °F 94% 30.25 in 10.0 mi North 17.3 mph 23.0 mph N/A   Light Drizzle
7:55 PM 56.5 °F 55.4 °F 96% 30.25 in 10.0 mi North 15.0 mph - 0.00 in Rain Light Rain
8:00 PM 57.2 °F 55.4 °F 94% 30.25 in 10.0 mi North 15.0 mph - N/A   Light Drizzle
8:55 PM 55.8 °F 54.5 °F 96% 30.26 in 10.0 mi North 13.8 mph - 0.02 in Rain Light Rain
9:01 PM 55.4 °F 53.6 °F 94% 30.26 in 10.0 mi North 12.7 mph - N/A   Overcast
9:38 PM 55.4 °F 53.6 °F 94% 30.26 in 10.0 mi North 15.0 mph 21.9 mph N/A   Overcast
9:40 PM 55.4 °F 53.6 °F 94% 30.26 in 10.0 mi North 15.0 mph 21.9 mph N/A   Overcast
9:42 PM 55.4 °F 53.6 °F 94% 30.26 in 10.0 mi North 16.1 mph 20.7 mph N/A   Overcast
9:55 PM 55.4 °F 53.8 °F 94% 30.26 in 10.0 mi North 12.7 mph - 0.00 in   Overcast
10:11 PM 55.4 °F 53.6 °F 94% 30.26 in 10.0 mi North 15.0 mph 21.9 mph N/A   Overcast
10:40 PM 55.4 °F 53.6 °F 94% 30.26 in 10.0 mi North 16.1 mph 21.9 mph N/A   Overcast
10:55 PM 54.9 °F 52.7 °F 92% 30.25 in 10.0 mi North 18.4 mph 25.3 mph N/A   Mostly Cloudy
11:11 PM 55.4 °F 51.8 °F 88% 30.25 in 10.0 mi North 13.8 mph 25.3 mph N/A   Scattered Clouds
11:24 PM 53.6 °F 51.8 °F 94% 30.25 in 10.0 mi North 16.1 mph - N/A   Mostly Cloudy
11:55 PM 54.5 °F 52.0 °F 91% 30.25 in 10.0 mi North 16.1 mph - N/A   Overcast